Погода в Урюпинске

Погода в Урюпинске : погода сейчас, прогноз погоды и архив. Всё, что Вы хотите узнать о погоде в Урюпинске!

Хотите узнать прогноз погоды в Урюпинске? Тогда Вам сюда: Погода в Урюпинске

Поиск расширенной информации на нашем сайте:

Другие новости

Новости СМИ2

Главная страница сайта

Новости сайта

03.07.2017

Напоминаем, что на нашем специализированном сайте Метеоцентр.Азия вы можете получить высокодетализированные автоматические прогнозы погоды по пунктам России, СНГ и мира в авиационном формате (включающие направление и скорость ветра, видимость, явления погоды, количество и форму облачности, нижнюю и верхнюю границу облачности).


Погода в Урюпинске - сегодня

Время (UTC), дата Ветер
(°,м/с) 
Видим.   Явления Облачность Т
(°С)
Тd
(°С)
f(%) Тe
(°С)
Pmin
(гПа)
dP
(гПа)
Po
(мм)
O2
(г/м3)
Тmin Tmax R s Состояние
почвы
18 14.08.17 090 (В) 10 км    10/0 верхняя 
[Ci fib]
+20.4 +11.4 56 +23  1017  753  280           
21 14.08.17 110 (В) 10 км    10/0 верхняя 
[Ci fib]
+17.7 +10.7 64 +20  1017.8  0.7  754  283           
00 15.08.17 040 (СВ) 10 км    10/0 верхняя 
[Ci fib]
+14.6 +10.5 76 +18  1018.3  0.3  754  287           
03 15.08.17 030 (СВ) 20000 м    10/0 верхняя 
[Ci fib]
+14.3 +9.3 72 +16  1019  0.7  755  287  +12.6        сухая 
06 15.08.17 150 (ЮВ) 20000 м    1/0 верхняя 
[Ci fib]
+24.2 +8.5 37 +24  1019.1  0.6  755  278           
09 15.08.17 050 (СВ) 20000 м    8/0 средняя 
[Ac trans]
+27.7 +12.9 40 +33  1019.3  0.4  755  274           
12 15.08.17 360 (С) 20000 м    5/4 1000 м средняя 
[Cu hum|Ac trans]
+30.1 +8.8 27 +30  1017.8  -1.5  754  272           
18 15.08.17 040 (СВ) 10 км    6/3 1000 м средняя 
[Cu med, cong|Ac trans]
+24.2 +10.7 43 +26  1019.1  1.2  755  278           
21 15.08.17 010 (С) 10 км    5/0 средняя 
[Ac trans]
+18.7 +9.9 57 +21  1019.9  0.5  755  283           
00 16.08.17 350 (С) 10 км    3/0 средняя 
[Ac trans]
+15.8 +10 68 +18  1020.5  0.4  756  286           
03 16.08.17 010 (С) 20000 м    8/0 средняя 
[Ac trans]
+17 +10.1 64 +19  1021.1  0.7  756  285  +14.1        сухая 
06 16.08.17 050 (СВ) 20000 м    3/0 средняя, верхняя 
[Ac trans|Ci fib]
+25.6 +9.1 35 +26  1021.5  0.7  757  277           
09 16.08.17 050 (СВ) 5{10}  20000 м    6/0 средняя, верхняя 
[Ac trans|Ci fib]
+28.8 +7.3 26 +29  1021.1  -0.3  757  275           
18 16.08.17 050 (СВ) 10 км    1/0 средняя 
[Ac trans]
+21.7 +7.7 40 +22  1021.4  0.8  757  281           
21 16.08.17 050 (СВ) 10 км    ясно 
+19.3 +7.8 47 +20  1022  0.5  757  284           
00 17.08.17 360 (С) 10 км    ясно 
+15.7 +8.5 62 +17  1022.4  0.3  757  287           
03 17.08.17 340 (С) 20000 м    5/1 600 м средняя, верхняя 
[Cu med, cong|Ac trans|Ci fib]
+15.5 +9.4 67 +16  1022.7  0.2  757  287  +13.8        сухая 
06 17.08.17 050 (СВ) 20000 м    ясно 
+24.5 +10.9 42 +27  1022.3  757  278           
09 17.08.17 070 (В) 7-10{11}  20000 м    ясно 
+29.9 +9.9 29 +31  1021.5  -0.5  757  273           
15 17.08.17 040 (СВ) 7-10{10}  20000 м    4/0 средняя 
[Ac trans]
+30.1 +6.8 23 +30  1020  -0.5  756  273    +31.9       
18 17.08.17 050 (СВ) 4{10}  10 км    ясно 
+23.2 +7.5 36 +23  1021.2  0.9  757  280           
21 17.08.17 060 (СВ) 10 км    ясно 
+22 +10 46 +23  1021.6  0.3  757  280           
00 18.08.17 070 (В) 10 км    ясно 
+19.7 +11.1 58 +22  1022.1  0.4  757  283           
03 18.08.17 060 (СВ) 20000 м    6/0 средняя, верхняя 
[Ac trans|Ci fib]
+18.8 +11.8 64 +22  1022.7  0.5  758  283  +18.3        сухая 
06 18.08.17 080 (В) 20000 м    10/0 верхняя 
[Ci fib]
+25.7 +11.1 40 +28  1023  0.6  758  277           
Время (UTC), дата Ветер
(°,м/с) 
Видим.   Явления Облачность Т
(°С)
Тd
(°С)
f(%) Тe
(°С)
Pmin
(гПа)
dP
(гПа)
Po
(мм)
O2
(г/м3)
Тmin Tmax R s Состояние
почвы

Для получения пояснительной информации подведите курсор к названию столбца.

ПОГОДА в Урюпинске - архив

Всё, что Вы хотите узнать о погоде в Урюпинске - удобно и подробно!

Выберите нужную дату (начиная с 1 января 2015* года) и нажмите кнопку "Найти".
Будут отображены архивные сводки погоды по пункту Урюпинск, начиная с указанной даты.


Отображать данные в формате CSV (для использования в таблицах Excel)


Внимание! Наш архив погоды предназначен исключительно для личного некоммерческого использования в познавательных целях. Если Вам необходимы официальные справки о состоянии погоды (для производственных, юридических, коммерческих и т.п. целей), обращайтесь в органы Росгидромета.

*Примечание: данная дата относится к архиву по метеостанциям СССР (Россия, СНГ, Балтия).
Архив по метеостанциям Зарубежной Европы и Азии (кроме Китая) хранится 10 дней, по другим регионам земного шара (Китай, Африка, Америка, Австралия, Океания) - 1 день.

Урюпинск - район местоположения метеостанции


Название, широта, долгота, высота метеостанции:
Урюпинск 50.8°ш. 42°д. 110 м над ур. моря [Российская Федерация]

Дополнительная информация

В oтличие oт бoльшинства пoгoдных сайтoв мы публикуем пoдрoбную метеoинфoрмацию в детальнoм прoфессиoнальнoм фoрмате.

Характеристики температуры и влажнoсти вoздуха измеряются на высoте 2 м в тени вдали oт зданий и деревьев.
Скoрoсть ветра измеряется на высoте 10 м (на урoвне рoста челoвека скoрoсть ветра ниже в 1.5-2 раза). Если метеoстанция нахoдится в гoрoде или в лесу, тo скoрoсть ветра занижена на 2-4 м/с пo сравнению с oткрытым местoм. Скoрoсть ветра над акватoриями крупных рек и oзёр, а также на вершинах хoлмoв на 2-5 м/с выше, чем в oбычных услoвиях.
Атмoсфернoе давление в разных тoчках местнoсти мoжет значительнo oтличаться oт давления на метеoстанции, в зависимoсти oт услoвий рельефа (при пoдъёме на 10 м давление пoнижается примернo на 1 мм рт.ст.).